Theta_e
332 332 333 332 331 330 330 330 329 330 328 327 327 326 325 323 321 320 318 316 314 312 310 310 309 308 307 308 307 306 306 305 305 304 304 302 302 302 301 301 301 300 302 300 300 300 300 299 299 299 300 300 299 299 299 299 298 298 298 298 297 296 296 295 295 295 296 296 296 298 298 297 297 295 297 298 299 299 300 300 300 300 299 299 300
332 332 332 332 331 330 330 330 329 329 328 326 326 325 324 323 322 320 317 316 314 312 310 309 308 308 307 307 306 306 306 305 304 304 303 302 301 302 301 301 300 300 300 300 300 300 300 299 298 299 299 299 299 298 298 297 297 297 296 296 296 296 296 295 294 293 293 297 298 296 297 295 297 295 297 297 298 300 299 298 299 299 299 300 299
333 333 332 332 331 330 330 329 329 328 327 326 325 325 324 323 322 320 318 316 314 312 310 309 308 307 307 306 306 306 306 305 304 304 303 302 301 301 301 301 301 300 300 300 299 299 300 300 298 299 300 299 298 298 298 297 297 296 295 296 295 295 295 295 294 292 292 294 294 295 297 296 297 297 296 297 298 297 296 298 298 299 300 300 300
332 332 332 331 331 330 330 330 329 328 327 326 325 324 324 323 322 320 319 316 313 312 311 309 308 307 307 306 306 305 305 304 304 304 303 302 301 301 301 301 301 301 300 300 299 299 299 298 298 299 300 298 297 296 296 296 296 296 295 295 295 295 295 295 294 294 294 294 296 295 296 296 298 295 295 298 296 298 297 297 298 299 300 299 299
332 332 331 331 331 330 329 329 328 327 327 326 325 324 323 323 322 320 318 316 314 312 311 309 308 308 307 306 305 305 304 304 303 303 302 302 302 301 301 300 301 300 300 300 302 299 300 299 298 298 298 297 296 295 295 295 295 295 295 295 295 295 296 295 295 294 294 295 295 295 294 294 295 296 296 296 297 297 298 298 297 298 299 300 300
332 331 331 330 330 330 329 329 328 327 327 326 325 324 323 322 321 321 318 316 314 312 311 309 309 308 307 306 305 305 304 303 303 303 302 302 302 301 301 301 300 300 300 300 300 300 300 299 298 297 297 296 295 294 294 294 294 294 294 294 294 294 294 294 295 294 294 294 296 296 296 296 297 297 296 296 295 296 297 298 299 299 298 298 299
332 331 331 331 330 330 330 329 328 327 326 326 326 324 323 322 321 320 319 316 313 312 311 310 310 309 307 306 305 305 304 303 303 302 302 302 301 301 300 300 300 300 300 300 300 300 299 299 298 297 297 296 295 294 294 294 294 294 295 294 293 294 294 294 294 294 294 294 292 293 293 294 294 295 296 295 295 295 295 296 296 298 299 297 297
332 332 331 331 331 330 330 330 329 328 327 326 325 324 323 322 321 320 319 316 314 312 311 310 309 308 307 306 305 305 303 303 303 302 302 301 301 301 300 300 300 300 300 300 300 300 299 298 297 297 297 296 296 294 294 294 294 294 293 293 293 294 294 293 293 293 294 294 295 294 292 293 295 294 294 295 297 295 296 294 293 295 296 297 297
332 332 331 331 331 331 330 330 329 328 327 326 325 324 323 322 321 319 318 316 314 313 311 310 308 307 306 306 304 304 303 303 302 302 301 301 301 300 300 300 300 300 299 299 299 299 299 298 297 296 299 300 299 298 296 296 294 294 293 294 294 294 293 293 293 293 292 294 294 291 292 293 293 293 294 295 295 295 295 294 294 296 295 295 298
332 332 331 331 332 331 330 329 328 328 327 326 325 324 323 321 320 318 317 316 314 312 311 310 308 307 305 304 304 303 303 303 304 303 303 301 300 301 300 300 300 300 300 299 298 298 298 297 299 302 304 303 301 298 297 298 298 296 294 294 295 293 293 293 293 293 293 294 295 294 295 295 294 293 293 294 295 295 295 295 294 295 295 295 297
332 332 331 332 332 331 330 329 328 327 327 326 325 324 322 321 319 318 316 315 313 312 310 309 307 306 305 304 303 303 303 303 301 297 297 300 301 301 300 300 300 300 300 299 298 298 297 297 298 304 306 305 301 297 296 296 296 296 296 297 297 296 293 293 293 293 296 295 293 292 293 293 294 294 294 295 295 295 295 294 294 294 294 292 292
332 332 332 332 332 331 330 328 327 327 326 325 324 323 322 320 318 317 315 314 313 312 310 309 307 306 305 304 304 303 303 303 297 297 296 297 301 301 300 300 300 301 300 300 299 299 297 296 298 303 302 301 299 298 298 296 295 295 294 295 295 296 296 297 296 293 293 294 292 293 293 293 294 294 294 294 296 296 295 294 294 294 294 293 293
333 332 332 332 331 331 329 328 327 326 326 325 324 323 321 319 318 316 315 314 312 311 310 309 307 306 305 304 304 304 303 299 296 296 296 296 297 300 300 301 301 301 300 300 299 298 297 297 298 300 300 303 301 296 298 298 297 296 295 296 295 294 292 292 295 298 295 294 294 293 293 294 294 296 297 298 296 295 295 295 296 295 294 294 295
332 332 332 331 331 330 329 328 327 326 326 325 324 322 320 319 318 317 316 314 312 311 310 308 307 306 305 305 304 304 303 299 296 296 296 295 295 298 301 301 301 301 300 299 298 298 297 298 299 299 297 302 297 295 295 295 297 297 297 297 296 299 296 292 292 293 295 297 296 296 296 295 297 297 299 298 295 296 296 296 297 295 296 296 296
332 332 331 331 331 330 328 327 326 326 325 324 323 322 320 319 317 316 315 313 312 310 309 308 307 306 305 305 304 303 304 297 295 295 295 295 295 298 301 301 301 301 300 299 299 298 297 299 300 299 297 299 297 295 295 295 295 294 294 295 296 296 297 299 298 297 298 297 296 297 297 295 297 298 297 296 296 297 297 297 296 295 295 295 297
331 331 330 330 330 329 328 327 326 325 324 323 322 321 320 318 317 316 315 313 312 311 310 309 307 306 305 305 304 303 303 295 295 295 295 294 295 302 301 301 300 300 299 298 298 298 298 299 299 297 296 299 299 294 296 295 293 293 294 294 294 295 296 298 295 295 298 298 297 297 297 296 295 297 297 296 296 296 296 297 296 295 294 295 295
330 329 329 330 329 329 328 326 325 324 324 322 321 321 320 318 317 316 314 313 311 310 309 309 308 307 305 305 304 303 302 296 294 294 294 294 297 301 300 300 300 299 299 299 298 298 298 299 298 296 295 297 297 292 293 294 293 294 295 294 294 295 297 296 294 292 293 292 291 292 292 291 291 292 291 292 294 295 294 295 296 294 294 293 294
329 329 329 329 329 328 328 326 324 323 323 322 321 321 320 319 317 315 314 313 311 311 310 308 306 306 305 305 305 303 302 298 294 294 294 294 299 301 301 300 299 300 299 299 299 299 299 302 300 296 295 296 295 292 292 294 293 293 293 293 293 293 296 294 293 295 292 292 292 291 291 291 291 291 292 292 292 294 296 296 298 296 295 294 292
329 329 329 330 329 328 327 326 324 323 322 322 322 321 319 318 317 316 315 313 311 310 308 307 306 306 305 305 307 305 302 299 294 294 294 294 300 301 300 300 299 299 299 299 300 300 299 302 302 298 297 296 293 293 291 294 293 294 294 293 292 292 294 293 294 293 294 295 295 295 295 294 297 296 296 294 293 296 297 298 297 296 295 295 294
330 330 330 329 329 328 327 325 324 323 322 322 321 320 318 317 316 314 312 311 309 308 307 306 305 304 304 304 305 305 302 300 297 294 294 295 298 302 301 300 299 299 299 299 299 299 299 300 301 294 294 293 292 292 291 292 294 294 293 292 291 290 291 290 294 293 294 294 293 294 295 294 294 294 294 294 295 299 298 297 297 297 296 295 294
329 329 329 329 328 327 326 325 323 323 323 322 321 318 317 316 314 313 311 310 308 307 305 304 304 303 303 304 304 304 303 301 297 293 294 295 296 299 301 301 300 300 299 299 299 299 298 299 300 297 293 292 292 292 291 291 293 294 293 293 293 293 291 293 297 296 294 296 295 295 295 295 294 294 295 296 297 297 298 297 297 297 297 295 294
329 328 328 328 327 326 325 325 324 323 323 322 319 317 315 315 314 313 310 309 307 306 305 304 303 302 302 303 304 304 304 302 299 294 294 295 295 297 301 301 301 301 300 300 300 299 299 299 299 298 293 292 292 292 291 291 291 296 294 291 290 289 293 294 294 294 293 294 293 293 294 294 295 296 296 297 297 297 297 297 297 296 296 297 296
327 327 327 326 325 325 324 323 322 324 322 319 317 312 311 313 313 311 309 307 306 305 305 304 303 301 301 302 303 303 303 302 298 297 294 294 295 296 297 299 296 302 301 300 300 300 300 300 300 298 293 292 292 292 291 290 291 294 291 289 289 289 293 293 293 292 293 293 293 294 293 293 293 295 295 296 297 297 297 297 297 296 296 297 296
326 325 324 325 324 323 323 322 323 323 320 316 313 309 310 311 311 310 309 307 305 304 304 303 302 301 301 301 301 301 302 302 297 296 296 293 294 295 295 295 296 301 302 301 301 300 299 299 298 295 293 292 292 291 291 291 292 291 290 289 289 290 294 292 291 292 292 291 292 292 293 293 292 293 295 296 296 297 296 296 296 296 296 296 296
324 324 323 323 322 323 322 322 322 321 319 315 311 309 308 309 309 308 308 307 306 304 303 303 302 302 301 300 300 300 301 301 299 296 294 293 293 294 294 294 294 296 301 301 300 299 296 294 294 293 292 292 291 291 290 290 290 290 289 289 292 292 292 292 291 291 291 291 292 292 292 293 294 295 296 295 295 295 295 296 297 297 296 296 296
323 322 319 319 321 321 320 320 320 319 317 316 312 310 309 308 308 307 307 307 306 305 302 302 302 302 301 300 300 300 300 300 299 298 296 296 295 293 293 293 295 295 298 299 295 294 293 292 293 292 292 292 293 292 292 292 290 289 289 291 293 291 291 290 291 291 291 291 291 291 293 293 294 294 294 294 294 295 295 296 296 298 296 295 295
320 318 318 320 320 320 319 319 318 316 315 313 311 309 309 309 308 307 308 306 305 304 302 302 302 301 301 300 301 300 300 300 299 298 297 297 297 296 295 295 295 294 298 297 295 296 294 294 294 292 293 291 292 292 292 291 291 292 292 293 292 291 291 291 291 292 292 291 292 292 292 292 293 293 294 294 294 295 295 295 294 295 295 294 294
318 318 318 318 316 317 317 306 311 314 313 311 308 308 308 308 307 306 307 306 304 302 302 301 301 300 301 301 300 300 299 299 299 298 297 297 297 296 297 297 296 297 297 295 295 295 295 292 292 294 294 293 292 292 292 292 291 290 291 291 291 291 291 291 291 291 291 292 292 292 292 293 293 294 293 293 294 294 294 294 294 295 294 293 295
317 317 316 315 315 313 316 314 314 313 311 310 309 309 308 307 307 307 307 306 306 304 303 303 302 303 303 301 300 299 299 299 300 296 298 294 295 296 296 297 296 296 296 292 294 292 291 291 291 291 292 291 289 292 291 291 291 291 291 290 290 290 291 292 292 292 292 292 292 293 292 292 293 293 292 293 294 294 293 293 293 294 294 292 293
317 315 314 315 315 313 313 313 313 311 310 308 306 305 297 300 304 307 304 301 299 299 300 304 305 305 304 304 303 302 301 302 296 294 294 293 293 294 294 294 293 295 292 290 292 291 290 290 290 290 290 291 291 291 291 291 291 290 290 289 290 290 290 290 291 292 291 291 292 291 292 292 292 293 292 293 294 294 293 291 294 293 294 293 293
315 314 312 313 310 312 312 312 311 310 309 307 306 304 302 299 295 296 298 298 297 296 297 297 298 299 303 303 302 297 294 293 294 294 293 293 292 292 292 292 291 291 290 291 291 290 289 289 288 289 289 291 290 291 290 290 289 288 290 290 290 290 289 291 291 290 290 288 290 291 291 291 291 292 292 293 293 294 294 292 291 292 293 292 292
313 312 312 312 307 305 310 309 308 308 307 307 305 303 302 299 297 293 293 294 294 295 295 294 296 296 297 299 301 298 293 293 293 293 293 292 292 291 291 291 291 290 290 292 291 290 290 290 288 288 289 289 289 289 289 290 290 290 290 288 289 289 289 289 291 291 290 290 290 289 290 290 291 291 292 291 289 292 293 293 292 292 292 291 291
311 311 310 306 306 305 306 306 306 307 306 305 304 304 302 301 299 296 294 292 293 294 294 294 295 295 295 295 297 296 294 293 293 293 293 292 291 291 291 291 291 290 290 291 292 290 290 291 291 290 289 288 289 288 289 290 290 290 290 290 290 290 290 291 291 292 290 291 289 289 290 289 289 289 288 289 288 290 291 291 293 292 291 291 290
312 310 308 307 308 308 307 307 306 306 306 306 305 305 301 303 301 298 297 296 296 294 292 293 294 294 294 294 294 293 292 292 292 292 292 291 291 290 290 290 290 290 291 292 291 290 290 291 291 292 290 290 290 288 288 288 289 289 289 290 291 292 292 291 291 290 289 289 289 289 289 290 289 288 290 290 290 290 290 290 291 290 291 291 291
310 301 295 301 309 308 307 306 306 305 305 305 304 303 303 302 299 299 299 298 298 298 297 295 292 294 296 293 293 292 292 291 291 291 291 291 290 290 290 290 289 289 290 291 292 293 291 290 291 291 291 290 290 288 289 290 290 289 290 290 291 291 291 289 290 291 290 289 289 289 289 289 291 290 289 290 290 289 289 290 291 291 292 292 290
307 305 305 305 307 308 307 307 307 306 305 305 304 303 301 300 298 299 298 299 298 298 296 296 295 292 293 293 292 292 291 291 291 291 290 290 290 290 290 289 288 289 290 291 290 291 291 291 291 291 292 292 292 291 291 291 291 291 292 292 290 291 290 290 289 288 289 289 289 288 289 289 290 289 289 290 291 291 291 290 291 290 290 291 289
306 306 306 305 306 305 306 306 306 305 299 300 301 302 301 299 298 299 299 299 298 298 297 294 294 294 293 294 292 291 291 291 291 290 290 290 290 292 293 291 290 290 289 290 289 289 290 290 291 291 291 291 291 292 292 292 292 292 291 291 292 292 291 290 290 288 289 288 289 289 289 289 290 289 289 289 289 290 290 290 289 288 287 286 284
306 306 306 306 306 306 306 305 301 293 299 301 302 301 300 300 299 298 298 298 297 296 295 295 293 294 294 293 294 293 290 289 289 289 289 289 289 292 292 291 292 290 290 290 290 290 290 291 290 290 290 291 291 291 292 292 292 292 291 291 290 291 290 290 288 290 288 289 289 289 289 289 289 289 288 289 290 290 290 289 289 290 289 286 286
304 296 294 295 297 306 304 301 300 302 301 301 301 299 298 298 298 299 299 297 296 297 295 295 295 295 295 294 292 292 292 291 290 289 288 290 291 292 292 291 291 292 292 291 290 290 291 291 290 290 290 290 291 291 291 291 291 291 291 290 290 289 289 289 288 289 288 289 289 289 289 289 289 289 289 289 289 289 289 289 288 288 290 290 289
301 300 295 294 299 299 301 298 300 301 299 301 301 299 298 298 299 298 299 298 297 295 296 295 295 295 295 293 292 293 293 292 291 290 289 289 289 291 291 291 291 291 291 291 291 291 291 291 291 290 290 290 290 290 290 291 291 291 290 289 289 288 289 289 289 289 289 289 289 289 289 289 289 288 288 289 290 290 289 289 289 288 289 289 289
301 300 295 296 296 300 299 299 300 301 301 300 300 299 299 298 299 297 298 297 295 294 295 295 296 296 294 291 291 292 295 293 292 290 289 289 289 290 290 291 291 291 291 290 290 290 291 291 290 290 290 290 290 289 289 289 289 289 289 289 289 289 289 289 288 289 289 289 289 289 289 289 288 288 288 289 289 289 289 289 289 289 288 287 288
300 299 299 297 297 301 299 299 298 297 299 296 299 300 297 297 298 298 296 295 293 294 294 294 295 295 292 291 290 291 295 294 292 291 290 290 289 290 290 291 291 292 291 290 290 290 290 289 290 290 290 289 289 289 289 289 288 289 289 288 288 288 289 289 289 289 289 289 288 289 289 289 289 289 289 289 289 289 289 289 289 289 289 288 287
300 300 300 299 301 300 299 299 300 301 299 300 299 296 297 298 298 297 295 295 294 293 294 294 294 293 291 289 289 289 293 293 289 291 291 290 290 289 290 290 291 291 291 292 291 291 290 289 289 289 289 289 290 289 288 288 289 289 288 288 289 289 289 289 289 289 289 288 288 288 288 288 289 289 289 288 289 289 289 288 288 288 288 288 287
301 300 300 300 300 300 299 300 300 299 300 297 297 296 297 298 297 297 296 294 294 293 295 294 294 293 292 289 288 290 292 291 291 290 290 289 289 289 289 290 290 290 290 290 290 290 289 289 288 289 290 290 290 291 290 291 290 289 289 289 289 288 289 289 289 289 289 289 289 289 289 288 288 288 287 288 288 288 288 287 287 288 289 289 287
303 302 301 301 300 300 300 299 298 297 294 294 297 297 296 298 298 297 296 296 293 295 295 294 293 292 290 290 290 290 291 291 289 289 289 289 289 289 290 289 289 289 289 289 289 289 289 289 289 288 288 290 290 290 291 291 291 291 290 290 289 289 290 289 290 290 289 289 289 289 289 288 288 288 289 288 287 288 289 289 289 287 288 288 287
302 301 300 300 300 298 299 299 295 298 298 298 297 297 297 298 298 297 296 295 294 294 295 294 294 293 291 291 290 289 290 291 291 290 289 289 289 289 289 289 289 289 289 289 289 289 289 289 288 288 288 289 290 291 291 291 291 291 292 292 292 292 293 294 292 289 288 288 289 289 289 289 289 289 288 289 289 289 289 289 288 289 289 289 288
303 302 300 300 300 299 298 299 298 298 300 299 299 297 297 297 297 296 294 295 294 294 295 295 295 294 293 291 290 290 291 291 291 290 290 290 290 290 290 290 289 289 289 289 289 289 289 289 289 289 288 289 290 291 291 291 291 291 291 292 292 293 294 293 292 292 291 291 290 290 290 290 290 289 289 288 288 288 288 289 289 288 288 288 289
301 301 300 299 299 299 298 299 297 294 300 299 299 298 297 297 297 296 297 296 295 294 295 295 295 294 293 292 291 291 291 291 291 291 291 291 291 291 290 290 289 289 289 289 289 288 288 289 290 289 288 289 289 291 292 292 292 291 291 292 292 293 292 289 293 293 293 291 290 290 289 290 290 290 290 288 289 289 288 289 288 288 287 287 287
299 299 299 299 299 298 297 297 296 299 300 300 298 298 297 298 298 298 297 297 297 297 297 296 295 295 294 294 293 292 292 290 291 291 291 291 292 292 291 291 289 289 288 288 288 289 289 290 289 290 290 291 291 291 291 291 291 292 292 292 291 287 287 287 289 293 290 289 290 290 290 289 289 289 289 288 288 288 289 289 288 288 287 286 287
298 298 298 298 297 297 295 295 297 300 300 300 299 299 298 299 298 298 298 298 298 297 298 297 296 296 295 294 293 293 293 292 292 292 292 292 292 292 291 291 290 290 289 289 289 289 289 290 290 290 290 291 291 291 291 291 292 292 292 292 288 287 287 287 287 288 290 291 291 290 291 289 289 290 290 290 289 288 288 288 288 287 287 287 287
296 297 298 298 297 296 296 296 295 296 300 299 300 300 298 298 298 298 298 298 298 298 298 298 298 297 296 296 294 295 294 294 294 294 294 293 293 292 291 291 290 290 291 291 291 290 291 290 290 289 289 289 290 291 291 291 292 292 289 288 287 287 287 287 288 287 286 287 290 290 290 289 289 289 289 289 289 288 288 288 287 287 288 289 288
Wind_Speed
15 14 13 13 13 15 14 13 13 11 12 12 12 11 11 10 10 10 9 9 9 10 9 9 9 9 9 8 8 8 7 7 6 6 6 6 5 6 6 6 7 6 6 6 4 6 7 7 6 5 4 7 5 5 5 5 6 5 4 5 5 3 6 6 6 6 1 1 2 2 2 2 2 3 5 6 7 7 7 5 6 6 6 5 6
16 16 14 14 15 14 13 12 12 11 13 12 12 11 11 11 10 9 11 10 10 11 10 9 8 9 9 8 8 8 7 8 7 6 7 7 6 5 6 7 7 7 6 7 5 5 6 8 6 5 4 7 6 6 5 5 5 6 5 4 5 4 2 5 4 4 4 0 1 1 2 2 3 1 4 5 7 6 7 7 6 5 5 5 5
16 14 13 13 14 13 13 12 13 14 14 12 12 12 11 11 10 11 11 10 9 10 10 10 10 9 9 9 8 8 8 8 7 7 7 8 8 6 6 7 8 8 7 7 7 6 7 7 6 5 5 7 5 5 5 6 5 6 4 4 5 4 4 4 5 4 6 2 1 2 2 2 1 2 3 2 3 3 5 6 6 6 5 4 5
14 14 14 14 14 13 14 13 15 14 15 13 14 12 11 11 10 11 10 10 11 8 9 10 10 10 9 8 8 9 8 8 7 7 9 9 8 8 7 7 7 7 8 8 7 7 8 7 6 6 6 8 6 5 4 5 6 5 5 4 5 5 5 5 4 5 3 4 1 1 1 3 2 2 2 2 3 5 3 6 6 6 6 5 5
14 15 15 15 14 14 15 14 15 16 15 13 14 13 12 11 10 11 10 10 10 10 8 9 10 10 9 9 10 10 10 9 9 8 7 7 9 8 8 7 7 7 7 8 7 7 7 7 7 6 7 8 5 6 5 7 5 6 5 4 5 4 5 5 5 4 6 5 2 1 1 1 1 3 2 4 5 4 4 4 5 7 8 7 4
15 15 14 15 15 16 16 15 16 17 15 14 14 14 12 11 11 10 12 12 11 10 11 10 10 11 10 10 10 9 9 9 9 9 9 8 7 7 7 7 7 7 7 7 7 7 7 8 7 7 7 8 6 5 5 7 6 6 6 4 4 5 6 5 5 5 5 4 3 2 2 2 2 2 1 1 2 4 5 6 6 3 4 9 7
15 15 15 16 15 16 16 16 15 15 14 13 13 13 13 13 13 12 11 12 12 11 10 11 9 10 10 10 9 9 9 9 8 8 8 8 8 8 7 7 7 6 6 7 7 7 7 7 7 6 7 7 8 7 7 6 6 7 6 6 4 6 5 4 4 4 4 4 1 1 1 1 0 2 2 1 2 2 2 5 6 5 4 4 8
16 16 16 15 15 16 16 15 14 14 13 12 13 14 14 14 13 12 11 12 12 12 12 12 10 9 9 9 9 9 9 8 8 8 8 8 8 8 8 8 7 6 6 6 6 6 7 7 7 7 7 7 8 7 7 7 6 7 5 5 5 6 5 4 4 4 4 3 2 2 0 1 2 2 3 3 2 1 1 1 5 6 7 6 4
15 16 16 16 16 15 14 13 12 13 13 13 13 13 13 14 13 12 12 11 10 11 11 11 11 9 8 8 9 8 9 8 8 8 8 8 7 8 8 8 8 8 7 6 6 6 6 6 6 6 6 7 9 8 7 7 8 7 5 5 6 6 5 4 4 4 3 3 2 1 0 0 2 2 4 2 0 3 2 1 3 4 5 6 8
16 16 16 16 14 14 14 13 13 13 14 14 13 13 12 12 12 13 12 11 11 10 10 10 11 12 11 9 8 8 7 6 9 13 11 9 8 7 7 8 8 8 8 7 6 5 7 7 6 9 9 10 10 9 9 8 7 8 9 7 7 6 5 5 4 3 3 4 3 3 1 1 2 2 2 4 3 3 2 1 3 5 5 6 7
16 16 17 15 13 13 13 13 14 15 14 13 12 13 12 12 12 12 12 11 12 11 11 11 10 10 11 11 10 8 7 7 14 14 14 14 10 8 8 8 8 8 8 8 8 7 5 5 6 7 8 8 8 10 9 9 8 8 10 8 6 8 7 5 4 4 4 4 3 2 2 2 3 2 3 4 2 3 3 2 3 3 3 4 5
16 16 15 14 14 14 13 14 14 15 14 14 14 13 12 12 12 12 12 12 11 11 12 12 11 10 9 10 10 9 8 10 16 15 15 15 12 9 8 8 8 8 8 8 8 7 7 6 5 4 6 7 7 7 7 8 8 8 8 8 8 7 6 5 5 4 4 4 3 3 3 3 3 2 3 2 4 3 2 2 3 2 4 4 4
15 14 14 14 14 14 13 14 15 14 14 14 13 12 12 12 12 13 14 12 11 11 12 11 11 11 11 12 10 9 8 13 16 16 15 16 15 11 8 8 8 8 8 8 8 8 7 6 6 4 5 10 7 7 7 6 5 5 5 5 5 6 7 5 4 5 7 5 5 4 6 4 4 4 3 3 2 4 4 3 3 3 2 4 5
13 13 13 14 14 13 14 14 15 15 14 13 12 13 13 13 13 11 12 13 13 12 12 13 12 13 12 12 12 11 10 13 17 17 16 16 15 12 8 9 8 9 9 8 7 8 8 8 7 6 4 5 6 7 6 6 5 4 3 4 4 5 5 7 7 6 6 5 6 5 6 5 5 4 4 3 3 3 3 4 3 4 5 6 8
12 12 13 13 13 13 14 14 15 14 14 14 14 13 13 12 13 11 10 12 13 13 14 13 12 13 13 12 10 10 9 16 18 18 17 17 16 12 8 8 8 8 7 8 8 9 9 8 8 8 8 7 7 8 7 7 7 5 5 5 5 4 4 5 5 6 5 4 5 6 4 6 6 5 4 4 6 5 3 4 4 4 6 7 6
12 11 11 12 13 13 14 14 14 14 13 13 14 15 14 14 14 11 9 9 9 10 11 11 13 14 13 12 11 10 9 17 18 18 18 17 17 9 9 9 8 8 8 7 7 8 8 8 8 8 8 9 9 12 9 7 7 7 6 5 4 3 4 2 2 4 5 6 6 6 5 5 5 6 5 4 4 4 3 3 2 2 3 4 5
12 12 12 11 12 13 14 14 13 14 15 13 13 14 13 12 11 10 12 11 12 12 12 12 11 13 14 13 13 10 9 16 19 19 18 19 14 8 8 8 8 8 8 8 8 8 7 7 8 7 8 8 9 12 10 9 7 7 7 6 4 4 5 2 2 3 6 7 6 7 8 8 8 9 10 10 7 3 1 1 3 2 2 4 5
12 12 12 12 12 12 13 14 14 12 13 15 15 13 12 11 12 11 12 12 12 12 11 7 4 6 10 12 13 12 10 14 19 18 19 19 14 10 8 9 8 8 8 7 7 7 8 13 9 8 8 8 11 13 13 10 7 7 6 6 5 5 6 4 2 1 1 3 6 7 8 9 9 9 10 10 9 5 4 2 3 0 3 2 3
13 13 13 12 12 12 12 13 14 13 12 13 14 14 13 12 11 12 12 10 10 9 9 10 9 9 10 10 9 11 10 12 17 18 19 19 14 11 10 8 9 8 8 7 6 6 6 9 12 9 9 9 14 13 13 11 7 7 7 6 6 6 7 6 5 4 1 1 3 3 5 4 4 4 5 8 7 6 5 5 1 2 4 5 3
14 12 11 11 11 11 11 12 13 15 15 14 10 10 9 10 11 10 8 9 11 10 9 9 9 8 8 9 11 11 11 11 15 19 19 19 18 12 9 9 9 9 8 7 6 6 6 6 8 11 12 12 13 14 14 13 9 7 6 6 6 7 5 5 5 4 4 3 3 3 5 3 3 3 3 4 4 5 5 5 4 4 4 5 4
8 9 11 12 12 13 12 13 14 14 14 14 13 11 10 12 11 10 10 9 9 8 9 8 8 8 9 9 9 9 10 12 14 19 20 20 19 15 9 10 9 9 8 8 8 8 7 6 5 10 12 10 11 13 14 14 11 7 7 6 8 5 6 5 5 5 3 2 2 2 3 3 3 3 3 4 1 3 3 4 4 5 5 5 5
9 9 11 12 13 13 13 13 15 14 12 11 11 10 9 11 13 13 10 10 12 12 12 11 11 9 6 7 8 9 8 13 13 17 19 20 19 17 11 10 10 9 8 8 7 7 8 8 7 10 14 13 12 13 14 14 13 7 9 10 6 7 7 4 4 3 2 1 1 2 2 3 4 5 5 4 4 2 2 3 5 5 5 6 6
9 9 10 12 13 13 13 15 13 11 11 11 11 10 10 11 12 12 12 11 12 13 12 11 10 8 7 6 5 7 7 9 15 15 17 19 19 17 16 12 13 10 9 9 9 9 8 8 7 11 14 15 14 14 14 15 11 9 11 8 8 9 6 4 3 3 2 1 1 4 4 3 3 4 5 5 5 4 4 5 3 4 5 5 6
13 11 11 12 13 13 14 15 15 12 12 10 11 12 12 13 13 12 12 12 11 11 10 10 10 11 10 8 6 6 7 8 10 16 15 18 17 17 15 14 14 10 9 9 8 8 8 8 8 12 13 15 15 15 15 13 10 14 11 10 10 8 5 4 3 3 2 2 3 4 5 4 3 5 5 4 4 5 6 6 6 4 4 5 6
10 10 11 10 11 12 13 13 13 12 12 12 12 12 11 10 11 10 12 11 11 12 11 11 12 11 10 10 9 8 8 7 7 11 16 17 18 17 16 14 15 14 9 6 7 8 10 13 12 12 13 14 16 15 11 12 15 12 10 10 9 5 5 5 4 3 3 5 4 4 5 7 6 6 4 4 5 4 4 6 5 4 4 5 7
12 11 9 10 12 12 13 12 13 11 11 11 13 14 15 13 11 10 10 10 11 11 10 10 10 9 9 8 8 9 8 7 8 8 10 13 14 17 16 14 14 14 13 9 11 12 13 13 14 13 12 11 8 6 7 9 11 10 10 9 6 6 6 5 4 4 5 5 5 6 6 4 4 3 4 3 4 5 3 4 5 6 4 6 8
11 12 16 17 16 15 14 11 10 10 10 9 10 12 13 13 13 14 13 11 10 9 9 9 9 9 10 9 9 9 8 8 7 7 8 9 9 9 9 8 10 10 7 5 6 7 9 9 8 9 7 11 11 9 7 6 6 5 5 5 6 6 6 6 6 6 5 5 5 5 5 4 4 4 4 3 5 4 2 4 4 4 3 2 3
14 14 15 12 10 12 14 18 16 12 12 12 11 11 11 13 14 13 12 11 10 9 9 9 9 10 10 8 8 8 8 8 8 10 10 10 9 9 9 8 8 8 7 6 6 6 6 4 5 4 4 4 2 2 3 4 5 6 5 5 5 4 4 2 1 3 4 4 4 3 5 4 5 5 4 4 5 5 2 3 3 3 1 2 3
12 11 11 11 12 12 13 13 12 11 10 10 11 14 16 13 12 10 7 12 16 17 15 13 13 11 10 11 10 9 8 10 13 11 12 13 12 11 10 9 8 7 9 10 7 5 6 6 6 5 6 6 3 4 4 4 5 5 6 5 4 4 4 4 5 6 6 4 5 5 5 4 5 4 4 5 6 4 1 2 3 3 1 1 3
11 12 11 11 11 10 9 10 9 9 8 8 8 5 8 8 9 13 11 12 15 14 15 14 13 12 11 10 11 14 16 14 12 15 15 16 16 17 15 14 13 11 11 15 10 6 6 7 7 6 7 6 7 6 7 6 6 5 5 5 5 5 5 5 5 6 4 5 5 4 5 4 5 5 4 5 6 4 2 3 3 1 1 3 4
10 9 9 9 11 12 11 10 8 8 8 8 7 9 7 7 9 11 11 14 14 13 12 12 14 13 12 10 6 5 11 14 17 16 16 17 17 16 15 15 15 14 15 11 4 6 6 6 6 6 7 7 7 8 7 6 5 5 6 6 6 7 5 5 6 5 5 3 4 5 5 4 6 5 5 5 5 5 2 2 2 2 3 3 3
9 10 12 10 8 5 6 7 9 9 8 9 9 10 10 9 6 7 10 14 13 14 14 14 15 14 12 11 10 5 9 14 17 17 17 17 17 16 16 16 15 16 17 16 8 7 7 7 6 6 7 7 7 7 7 8 6 7 6 4 5 7 7 7 7 5 5 4 4 4 4 5 6 6 5 5 4 4 4 3 3 3 2 2 3
11 10 8 8 9 9 9 8 6 8 9 8 8 8 10 10 10 7 6 7 11 14 13 13 15 15 13 14 17 14 13 14 17 17 17 17 17 16 16 16 16 16 16 10 8 7 7 8 8 8 8 7 7 7 7 7 7 7 6 8 6 8 8 6 4 5 5 7 3 4 4 3 4 5 3 3 3 3 4 4 3 2 2 3 4
10 10 10 11 12 10 10 11 11 9 8 10 10 10 7 9 10 11 11 8 7 7 7 9 13 14 12 13 13 13 14 16 16 17 17 17 16 15 13 9 11 14 15 11 8 7 8 8 8 8 7 7 6 7 7 6 5 6 6 6 6 5 4 4 5 5 6 4 4 4 3 4 4 3 4 3 2 3 3 3 3 2 2 2 2
6 7 12 11 10 10 10 10 11 11 9 8 10 9 9 8 9 11 12 12 10 10 8 3 4 12 10 10 13 16 16 16 17 16 16 15 15 16 14 10 7 5 4 3 6 7 8 8 7 7 6 7 7 7 7 6 6 6 6 6 6 5 4 5 5 5 6 5 3 5 5 4 5 4 3 3 2 3 3 3 3 3 4 4 2
8 7 8 8 7 9 10 10 11 11 11 8 8 8 9 9 9 7 6 7 9 9 6 5 6 4 10 11 13 14 15 15 16 16 15 17 18 19 11 8 7 8 9 9 7 7 6 6 6 6 6 6 6 6 6 6 6 6 6 6 7 6 6 6 6 5 5 5 5 4 3 3 3 3 2 3 6 6 3 4 3 2 4 4 1
9 9 8 7 5 4 4 6 7 8 8 8 8 9 8 7 7 6 6 7 8 7 7 7 7 5 4 3 8 10 11 11 12 13 16 17 20 13 8 10 9 8 9 9 7 8 8 7 7 7 8 7 6 6 6 6 6 6 5 6 6 6 6 6 5 4 4 4 4 3 4 4 3 3 3 4 3 3 4 4 3 3 2 2 2
8 8 8 8 7 8 8 7 9 11 10 9 8 8 9 8 8 8 8 8 9 9 9 8 7 9 10 7 5 6 8 10 14 10 9 10 9 7 6 7 9 10 9 8 8 7 7 6 6 7 7 6 6 6 7 7 7 7 7 7 6 7 7 5 5 6 4 3 4 4 4 4 4 3 3 4 4 4 4 4 3 3 2 2 2
5 6 11 14 10 9 8 8 9 9 8 8 8 9 8 9 8 8 7 7 8 8 7 8 8 9 8 8 7 8 11 7 7 7 8 7 7 6 7 7 6 7 7 7 7 7 6 6 7 6 6 6 6 6 6 6 6 7 7 6 6 4 4 4 5 4 4 4 4 4 4 4 3 3 3 3 4 4 4 4 3 3 3 3 3
8 5 7 13 9 9 8 7 8 8 8 9 8 8 8 8 8 8 8 8 8 8 8 9 8 7 7 8 8 8 9 9 8 8 7 6 7 8 7 8 8 8 9 7 7 7 7 6 6 6 7 7 6 7 6 6 6 6 6 5 5 6 6 5 5 4 4 4 4 4 4 5 3 3 3 4 5 4 4 4 4 4 4 4 3
6 7 6 8 10 9 8 8 7 7 7 7 8 7 7 7 7 6 7 7 7 7 7 7 7 7 9 12 15 14 10 9 9 8 8 9 8 7 7 7 7 8 7 8 7 7 7 7 6 6 6 6 6 7 7 7 6 5 5 5 4 5 4 4 4 4 5 4 4 4 4 4 3 3 4 5 5 4 4 3 3 3 3 3 3
6 6 6 6 8 8 8 7 7 7 7 6 7 7 7 7 7 6 7 7 6 7 7 6 6 7 9 15 16 15 7 5 7 7 6 7 7 7 6 6 6 6 7 7 8 9 8 8 8 7 7 7 7 6 6 6 6 5 5 5 5 4 4 5 5 5 4 4 5 5 5 4 4 5 5 4 3 4 3 4 4 3 3 3 3
5 5 6 6 6 7 8 8 7 7 6 7 6 6 6 6 5 6 6 6 7 7 7 7 6 6 7 10 12 11 5 6 6 7 8 8 7 7 8 7 7 7 7 7 6 6 6 6 7 7 7 8 7 7 7 7 6 5 5 5 5 5 6 4 4 4 4 4 5 5 5 4 4 3 3 4 3 3 3 4 3 3 3 3 2
6 6 6 6 6 7 6 7 7 6 6 6 7 7 7 6 6 5 6 6 6 6 6 6 6 7 6 6 7 8 6 6 6 7 7 7 7 7 7 6 7 6 6 6 6 6 6 5 4 6 6 6 6 7 7 7 7 6 6 6 5 6 5 4 5 5 5 4 4 4 4 4 4 3 4 4 3 4 3 3 4 4 4 3 3
6 5 6 6 6 6 6 6 6 6 7 7 6 5 6 6 6 6 6 6 6 5 5 6 6 7 7 7 7 8 7 6 7 6 6 7 7 8 7 7 7 7 7 7 6 6 7 7 5 4 5 6 6 7 6 6 7 7 7 6 6 6 6 7 7 5 4 4 4 3 3 3 4 4 4 4 4 4 4 4 5 4 3 3 3
6 6 5 6 6 6 6 6 6 7 7 6 6 6 5 5 5 6 6 6 6 6 5 6 6 7 7 8 7 7 6 5 5 6 6 5 6 7 6 7 6 6 7 6 5 7 6 6 5 5 6 5 6 6 6 6 7 7 7 7 8 7 8 7 4 3 4 5 4 3 3 3 4 4 5 3 3 3 4 4 3 4 4 4 4
6 6 6 6 6 6 7 7 7 6 7 6 6 6 6 5 6 6 6 6 7 7 6 6 6 7 6 7 7 7 7 6 6 7 7 7 6 6 6 6 6 6 6 6 7 7 7 7 5 6 6 5 6 7 7 6 6 6 7 7 6 7 6 5 4 5 4 4 4 3 3 3 4 3 3 2 2 3 4 4 4 5 4 4 4
5 5 5 5 5 5 5 5 6 6 6 6 6 6 6 6 6 6 5 6 6 6 6 6 5 6 6 6 5 5 6 6 6 6 6 7 7 6 6 7 6 6 5 6 7 6 5 5 6 5 5 5 5 6 6 6 6 6 6 6 7 7 9 8 6 6 5 4 4 4 3 3 3 3 2 3 4 4 4 4 4 3 3 4 3
5 5 5 5 5 6 6 6 5 4 5 6 6 6 6 6 5 5 5 5 5 5 5 5 5 5 5 5 5 5 5 5 5 6 6 6 6 6 7 7 7 6 5 4 4 8 7 7 5 5 7 7 7 7 6 6 6 6 7 7 9 13 12 11 7 7 7 3 3 3 3 3 4 4 3 4 4 4 4 3 3 3 3 2 2
6 6 5 4 4 5 5 5 4 5 5 5 5 5 5 5 5 5 5 4 4 3 3 4 5 5 5 5 6 5 6 6 7 6 6 6 6 6 6 6 6 6 5 4 4 6 5 6 7 7 6 7 7 7 7 7 7 7 7 8 11 13 13 13 12 11 7 3 4 3 5 4 4 3 3 4 4 5 5 4 4 3 3 3 4
4 4 6 5 4 4 5 6 5 4 5 5 5 5 5 5 5 5 5 5 5 4 4 4 4 4 5 5 6 6 7 6 5 5 5 5 6 5 6 6 6 6 6 6 5 5 6 6 6 5 5 5 6 7 7 7 7 7 9 11 12 13 13 12 9 11 12 7 3 3 4 5 4 4 4 4 3 4 6 6 4 4 4 4 3
Wind_Direction
186 190 184 186 180 182 181 177 177 173 171 175 175 176 172 170 170 169 157 166 158 161 164 163 160 154 149 152 151 151 151 150 149 140 132 130 133 136 141 142 134 134 129 119 113 124 122 116 117 114 129 105 99 91 77 71 68 67 72 81 90 102 119 109 118 125 102 213 258 257 292 316 25 7 18 355 346 338 339 327 332 333 332 325 317
188 187 186 185 183 181 177 175 171 172 172 176 177 175 174 173 170 158 166 164 164 164 163 158 155 153 153 152 154 151 153 152 149 145 138 136 137 148 147 143 137 135 135 132 132 118 126 118 115 108 107 110 111 96 103 90 79 74 43 70 77 76 74 113 112 125 151 249 337 332 346 4 19 347 31 352 336 332 329 327 322 325 323 325 321
188 182 181 182 182 176 171 173 173 174 174 177 179 177 176 172 169 168 168 163 167 166 161 157 155 154 151 152 151 153 156 155 158 153 151 151 150 158 160 154 150 145 144 142 139 132 120 120 126 122 117 101 94 96 94 93 82 86 77 49 75 63 56 95 122 103 138 150 239 320 353 311 36 325 346 332 298 286 298 318 324 318 321 327 319
182 181 182 182 176 172 176 175 174 176 177 178 178 177 173 174 172 172 170 162 164 163 158 154 152 155 153 151 154 153 153 158 158 162 158 156 156 158 161 160 153 151 147 145 145 144 137 124 136 131 121 111 110 105 85 92 95 96 87 60 79 77 62 72 72 125 150 127 239 206 328 0 310 301 319 300 320 319 313 311 318 317 314 321 312
180 183 181 178 176 176 178 176 178 178 178 176 176 173 174 173 173 171 164 167 165 154 155 153 154 158 160 159 151 160 165 160 158 159 161 162 161 160 160 152 149 148 151 151 152 146 142 138 143 134 128 117 119 111 121 107 102 102 98 84 87 82 71 74 79 88 117 124 146 287 291 288 262 304 356 356 333 325 314 323 324 315 312 311 293
183 180 179 178 179 179 179 180 181 180 177 175 174 173 172 173 174 174 169 166 163 165 161 164 166 167 164 165 164 161 159 163 164 163 161 158 156 156 151 149 147 147 147 148 144 146 143 140 143 142 139 136 144 131 127 124 117 112 114 104 96 83 88 76 75 85 98 112 108 93 27 14 340 285 212 125 307 317 330 328 320 288 315 327 325
180 180 181 182 181 182 181 184 181 178 176 175 172 172 173 173 175 175 171 166 165 165 167 165 171 166 165 160 160 158 159 161 162 162 159 155 153 147 143 142 142 142 145 143 141 140 141 140 143 151 145 142 144 151 142 135 130 134 136 134 123 109 101 95 95 96 109 121 74 47 340 296 127 306 315 350 263 252 313 333 330 323 326 324 311
180 182 182 184 185 185 185 180 177 176 174 173 175 176 174 173 176 171 166 167 169 168 167 171 166 164 161 163 160 155 154 157 161 161 158 157 152 152 150 146 142 139 137 136 136 141 145 148 149 157 154 153 148 152 149 144 133 129 139 125 132 117 118 118 107 117 118 103 102 128 345 319 318 273 291 315 11 352 86 344 294 310 324 319 280
181 183 184 187 188 183 178 176 173 171 171 174 177 179 180 174 169 166 169 169 170 171 168 162 156 156 151 153 153 155 158 164 165 161 156 158 155 151 152 149 149 146 139 133 133 138 143 151 157 158 163 161 161 157 166 154 145 144 164 147 138 126 119 120 127 119 114 113 117 76 93 305 273 328 331 354 265 282 306 299 277 292 309 310 305
182 183 187 189 183 177 175 172 172 170 172 177 179 177 175 171 166 164 169 168 165 162 163 164 162 159 156 156 156 158 165 164 170 166 163 158 157 152 150 153 155 152 145 136 137 145 157 156 168 172 167 161 157 159 161 167 162 154 158 159 146 136 140 140 148 150 138 145 162 159 111 261 251 237 236 247 262 273 283 285 300 308 322 317 299
182 185 187 184 177 173 172 173 171 174 176 176 176 175 174 169 168 166 164 165 165 164 164 164 162 160 160 158 163 168 167 173 170 167 162 156 153 156 157 159 159 155 151 151 151 157 159 164 168 176 170 159 155 161 163 163 157 149 156 168 163 152 149 151 164 164 164 161 154 151 182 241 263 213 230 272 241 258 283 279 275 297 326 328 323
185 186 184 176 174 174 173 171 173 175 173 177 176 175 170 168 167 167 164 165 170 166 167 170 163 157 159 165 168 170 172 173 167 168 163 161 160 159 159 158 163 164 160 158 156 156 159 162 180 175 153 159 151 154 160 160 161 163 172 181 187 180 169 157 157 164 183 159 166 206 166 218 256 209 243 239 284 293 247 256 236 270 309 308 299
184 183 179 176 175 173 170 171 174 173 176 175 173 170 169 171 170 169 172 168 159 168 173 163 163 163 164 166 171 173 174 170 168 167 165 165 163 157 161 158 157 155 157 158 155 151 149 167 168 168 161 160 146 148 153 149 145 163 179 206 218 215 214 208 172 167 161 155 169 193 201 196 218 249 213 212 182 264 304 299 297 285 245 279 287
183 182 178 177 174 171 170 171 174 175 173 172 171 172 171 176 176 181 173 162 167 170 170 174 171 167 168 169 175 176 172 170 168 168 168 167 165 158 157 156 156 158 160 162 164 161 164 172 165 153 165 153 148 154 157 148 147 146 189 214 230 237 222 223 215 176 173 176 170 191 221 177 216 221 218 163 189 247 256 275 287 303 304 295 296
184 181 179 176 171 170 171 173 173 173 173 172 173 175 176 175 175 175 175 169 166 172 176 179 179 170 169 173 169 171 177 167 170 169 169 167 165 159 158 157 158 163 165 166 170 168 177 177 168 163 164 168 166 168 161 160 157 168 178 200 222 227 224 213 193 184 191 194 199 214 209 200 231 245 233 221 230 235 226 253 289 289 289 284 264
181 176 176 175 174 172 171 172 171 170 174 176 174 176 178 178 177 171 166 169 175 169 177 189 177 171 170 167 167 173 170 167 170 169 167 166 164 164 160 157 162 165 171 174 173 174 174 175 169 168 172 175 181 176 171 156 156 162 178 189 218 228 238 233 227 201 200 192 197 209 219 218 221 237 237 230 240 246 254 270 296 268 294 317 324
178 175 176 174 172 171 170 169 173 174 171 174 181 179 178 178 172 166 167 173 174 176 182 189 187 176 167 167 169 171 165 173 171 168 167 166 165 161 160 159 166 170 174 176 175 171 178 183 174 169 177 186 174 173 168 158 164 170 179 185 191 201 214 222 252 240 227 223 232 241 250 258 259 263 268 258 246 219 154 254 248 198 317 328 315
176 172 174 172 172 170 171 169 170 174 174 178 181 185 180 171 166 168 174 175 181 184 177 168 167 175 165 166 172 168 170 175 172 168 166 170 164 155 161 164 171 175 172 177 176 176 187 189 179 172 176 187 173 181 168 167 173 176 176 177 190 210 224 218 282 268 289 238 242 251 260 266 264 267 269 269 255 197 187 264 289 293 299 263 291
177 177 176 171 167 168 170 171 168 171 183 187 182 180 177 173 168 172 179 172 171 162 156 157 167 174 178 169 160 164 164 171 171 167 169 170 165 161 163 168 169 175 171 177 181 175 186 197 186 175 180 187 179 179 175 179 181 177 180 171 195 211 221 189 186 179 215 316 245 305 291 271 263 252 265 259 240 222 217 246 254 220 285 294 286
187 176 162 158 162 165 168 171 176 177 181 180 181 179 164 156 166 171 153 160 166 166 160 160 158 164 162 163 175 172 162 168 176 171 171 172 168 164 171 166 174 176 181 171 166 188 188 192 190 186 194 189 180 180 181 186 184 181 152 176 189 224 210 182 185 159 167 209 240 247 253 261 262 266 232 205 221 219 203 212 204 211 251 283 277
172 172 164 161 163 167 170 173 178 186 183 178 173 168 165 166 164 158 161 165 151 133 128 133 142 160 179 176 169 175 172 167 177 174 174 175 173 164 174 177 177 175 176 179 182 182 186 188 193 191 198 196 190 187 186 192 192 170 183 188 201 203 141 163 172 176 181 204 277 280 297 309 288 292 295 293 222 183 206 213 203 208 225 251 284
170 167 168 169 168 167 171 178 180 183 184 172 164 163 165 162 163 166 169 159 152 152 155 154 160 165 165 173 172 169 168 172 166 180 178 177 174 171 172 186 180 172 174 184 182 186 185 186 190 190 190 194 195 195 195 195 192 178 197 206 172 151 158 161 144 141 175 160 285 302 308 326 321 308 304 292 292 269 212 210 213 224 223 224 231
166 170 171 173 172 170 170 175 183 184 178 168 157 145 152 161 167 167 163 156 157 159 160 157 151 145 153 166 167 159 165 178 172 176 183 178 180 180 179 179 178 173 177 184 189 189 182 184 187 181 186 193 196 197 199 197 186 203 205 184 172 170 142 140 149 156 167 188 323 287 289 283 287 285 292 293 290 291 294 290 251 224 233 231 240
163 169 180 184 175 170 172 177 183 185 176 153 141 143 161 168 167 169 165 159 158 158 158 154 151 159 167 162 156 162 171 175 183 177 176 181 181 182 184 182 173 184 181 191 186 178 177 184 190 187 189 193 195 197 200 188 191 205 193 176 167 166 154 151 171 183 170 194 256 265 269 255 242 263 252 247 276 306 300 293 290 256 236 248 242
162 168 180 180 172 172 173 179 186 184 171 154 145 151 155 159 163 172 166 164 163 163 165 161 166 171 164 168 167 167 169 175 171 179 177 180 181 185 190 182 184 177 181 191 174 180 186 185 189 186 190 192 197 197 193 192 201 198 178 165 163 155 173 180 185 174 208 237 239 250 257 246 233 246 276 290 287 282 279 284 260 243 241 252 263
162 160 143 153 176 174 177 182 183 181 170 164 159 158 158 161 162 166 168 173 173 164 157 162 169 170 160 159 162 164 166 172 173 172 177 183 184 190 189 186 184 186 187 182 181 178 181 186 187 187 188 192 183 178 187 197 199 183 171 167 167 172 172 174 184 185 227 226 230 237 240 261 255 256 263 273 287 281 311 299 320 318 353 354 340
157 159 169 181 178 172 172 179 176 171 171 159 158 162 162 164 167 173 177 169 158 148 149 160 172 159 163 171 162 159 168 176 172 167 172 176 186 179 180 191 188 181 178 154 156 171 184 181 185 183 183 186 190 190 184 166 157 166 165 175 176 179 177 186 189 199 209 229 232 243 253 264 287 286 270 271 277 273 213 257 281 273 329 318 311
167 173 174 174 173 172 172 170 173 180 174 160 156 160 166 166 165 171 174 158 137 134 151 167 161 170 182 163 160 161 168 176 182 180 181 178 172 169 179 176 176 176 163 162 163 155 142 134 119 108 109 103 143 105 159 165 177 167 176 179 186 183 184 169 184 217 242 224 258 267 278 265 276 271 288 277 267 277 242 235 228 267 348 326 315
164 166 168 167 174 177 177 181 181 172 166 163 165 166 167 168 167 168 142 145 161 166 176 179 178 172 157 163 163 175 174 188 206 186 172 169 167 170 180 183 171 177 175 148 114 95 107 129 135 143 149 157 159 183 177 173 186 186 173 178 182 181 177 182 200 214 214 192 232 242 258 276 269 272 273 280 268 270 201 231 244 241 313 131 241
164 166 165 173 174 175 175 174 167 162 156 147 132 80 42 108 152 156 156 172 168 165 163 172 171 164 167 177 176 176 191 198 144 149 161 168 176 180 182 175 174 166 156 158 149 144 162 166 177 172 170 164 177 188 189 188 186 190 202 194 183 179 190 196 213 226 200 213 226 232 247 255 273 271 268 258 279 269 220 215 236 184 238 255 286
165 154 160 176 177 180 175 160 155 145 136 135 133 131 117 66 85 116 132 146 151 150 157 128 144 167 167 164 173 93 84 115 153 164 162 173 176 178 174 173 169 162 152 140 142 160 165 176 185 187 184 181 189 196 191 184 195 196 199 189 192 194 197 199 215 209 209 219 221 233 244 233 254 260 262 260 264 284 270 215 205 197 229 252 271
154 166 179 171 162 129 123 133 144 142 142 143 144 148 135 121 75 52 114 137 135 143 150 147 153 158 163 152 145 118 141 153 159 166 170 170 177 177 175 170 170 161 169 162 164 183 178 180 182 190 187 192 201 197 187 185 193 195 187 179 201 197 193 214 205 185 204 206 218 224 223 224 231 247 249 256 260 269 272 257 221 219 235 223 243
154 161 150 119 117 123 131 128 140 140 140 139 146 148 144 139 131 115 33 75 129 146 145 144 152 158 154 155 164 162 158 160 162 166 170 176 174 176 172 169 167 169 162 174 184 179 186 183 187 191 187 199 197 189 187 192 190 190 187 193 200 198 205 206 149 187 202 213 202 222 218 226 231 247 249 249 237 262 256 253 234 213 229 268 263
157 154 149 150 149 156 156 152 150 153 154 155 157 158 160 153 148 139 136 126 71 52 69 135 154 152 150 148 144 129 140 154 162 168 173 175 173 164 153 151 160 168 172 183 180 186 176 188 194 190 187 199 191 175 189 189 195 190 190 203 209 192 183 156 174 200 200 201 208 230 227 231 218 234 251 237 223 235 259 252 236 244 248 225 253
134 146 149 151 158 157 155 153 146 142 148 164 158 155 148 145 146 152 156 152 153 157 162 114 137 154 149 150 149 149 152 157 163 168 170 165 151 137 123 121 135 173 230 260 191 187 185 191 194 197 193 195 197 189 192 191 188 191 195 197 199 200 185 182 203 196 204 209 210 219 218 225 221 218 238 253 244 229 233 239 233 212 226 245 229
123 134 153 157 154 163 158 156 149 146 148 157 154 141 140 141 150 154 136 123 133 137 121 131 138 164 153 153 155 156 159 162 164 163 157 149 147 141 145 160 154 173 187 194 191 197 193 193 195 205 198 200 183 193 194 192 195 197 196 192 197 192 189 191 204 213 218 211 221 227 224 223 221 220 220 233 235 235 227 221 229 214 209 236 228
146 151 149 139 126 98 99 115 117 119 120 127 134 129 127 122 124 123 127 131 134 129 133 125 111 84 73 122 159 155 153 159 157 148 148 152 155 160 165 164 171 166 186 188 180 191 194 203 195 196 195 194 196 195 191 200 198 199 200 203 202 196 204 207 210 200 198 209 221 213 220 241 224 204 196 227 235 229 230 216 227 233 224 223 211
141 147 145 127 120 126 122 117 115 116 122 130 130 128 130 136 140 140 139 143 142 142 143 150 152 153 162 166 147 131 115 106 97 95 119 140 156 171 162 169 171 173 183 185 187 186 197 190 188 195 199 196 196 193 191 198 193 197 198 201 201 213 214 215 217 212 217 221 228 225 217 239 236 213 196 217 231 225 221 209 205 231 231 200 199
90 105 121 125 129 131 128 127 128 125 125 124 129 128 133 135 135 138 140 138 142 143 145 150 159 167 166 146 144 131 120 136 160 163 160 171 174 173 163 171 177 185 181 180 181 189 195 196 196 198 196 199 199 194 195 200 193 205 207 206 209 207 206 210 216 215 209 220 228 223 222 234 221 205 201 212 228 221 219 206 204 207 229 230 216
115 121 117 117 110 111 119 121 123 123 130 131 129 127 128 139 147 150 147 147 149 150 153 159 166 164 148 147 145 153 164 170 171 161 162 167 179 177 171 172 183 182 180 178 182 190 193 200 188 190 198 201 200 198 197 196 194 202 195 200 204 211 214 214 216 209 216 217 223 227 224 235 217 194 203 213 222 207 204 214 216 207 211 221 238
120 123 136 124 123 118 113 116 119 125 128 124 128 134 140 138 138 138 141 143 143 147 157 165 165 159 165 174 173 176 177 173 164 165 170 167 169 175 184 185 188 191 190 189 189 188 192 189 190 194 195 198 198 196 193 191 195 180 195 201 205 215 214 214 215 219 222 217 225 230 233 223 199 188 212 220 214 209 209 216 222 205 208 212 226
115 124 113 116 121 114 116 110 109 108 112 118 130 134 135 140 142 145 143 142 144 149 149 155 159 161 168 172 179 184 176 161 163 163 158 161 166 180 187 193 199 198 191 192 187 185 191 193 191 189 191 193 192 193 183 189 191 195 195 197 199 204 201 211 212 218 218 222 228 231 235 220 203 208 223 220 188 195 202 210 220 217 213 214 211
114 110 112 115 113 119 121 125 127 128 126 127 124 113 120 128 132 127 129 136 145 151 153 155 152 148 163 177 175 175 167 162 174 169 159 163 169 177 186 197 197 202 202 198 187 185 183 187 189 189 197 195 190 186 190 197 192 191 189 194 199 198 208 211 203 214 217 222 230 232 231 220 206 211 211 207 199 181 200 212 220 223 225 222 220
113 104 101 95 96 96 99 113 114 114 122 116 116 120 131 126 128 133 133 137 152 161 157 150 145 149 147 154 163 178 179 167 166 170 170 174 183 191 196 198 194 190 198 193 189 178 176 182 195 198 195 201 192 193 196 190 178 185 190 193 192 202 206 208 214 218 207 205 218 221 216 208 206 203 208 201 177 182 192 199 217 219 219 217 200
97 97 101 95 93 100 100 96 100 107 106 108 112 119 130 138 145 145 149 151 154 154 149 155 153 152 153 165 174 180 180 173 172 172 178 182 190 196 188 189 188 189 185 195 181 175 181 188 189 188 198 201 194 196 199 191 189 192 188 188 190 196 208 215 220 209 185 196 210 211 213 203 200 198 205 187 181 185 192 205 208 220 225 233 209
102 99 96 103 104 106 109 108 110 120 126 130 133 139 141 141 144 147 153 152 156 162 158 161 164 167 169 170 171 172 178 174 177 185 187 192 194 190 187 184 184 187 190 182 172 183 189 189 187 194 203 203 195 200 201 195 195 197 191 191 199 206 209 210 174 159 185 193 202 201 196 198 209 206 205 182 180 187 206 212 201 210 221 227 219
108 117 121 117 118 121 122 130 136 137 134 137 139 138 145 150 145 150 154 157 157 164 169 170 167 170 167 162 166 170 172 179 186 189 198 199 193 185 183 182 182 193 193 185 178 184 187 192 195 197 204 205 189 193 196 194 197 196 198 200 206 216 220 199 185 186 188 190 189 185 203 211 212 208 194 180 182 195 205 212 204 216 214 215 221
92 95 95 104 110 114 117 118 125 129 128 131 133 137 142 142 144 150 154 156 162 169 166 167 164 156 155 159 168 171 178 186 188 194 192 195 192 186 185 188 192 192 182 178 180 180 185 191 192 195 202 203 203 204 201 200 198 199 199 204 206 211 217 211 193 201 192 177 179 197 203 215 229 214 173 176 200 189 195 218 209 212 208 211 215
100 105 110 112 115 120 126 125 123 123 125 128 128 134 141 146 151 157 159 164 162 162 161 160 156 150 157 166 169 176 178 182 188 196 200 199 190 189 185 186 186 182 183 191 185 184 189 188 191 193 199 197 202 204 205 203 204 202 205 203 209 215 218 216 211 215 195 182 181 183 186 200 218 219 196 191 201 198 214 219 198 209 204 205 199
94 92 87 80 104 113 111 113 120 121 119 129 135 138 146 148 150 155 156 157 161 155 155 148 156 162 163 163 172 179 180 189 197 201 203 201 193 185 181 181 183 187 190 197 191 183 183 187 189 195 198 203 204 209 208 206 206 209 206 210 208 209 214 216 218 222 205 188 193 183 185 200 210 215 204 205 203 203 215 218 209 191 195 191 204
88 96 107 102 104 113 116 120 121 123 129 137 136 140 148 157 159 158 157 163 172 175 166 162 163 164 178 179 182 184 192 198 196 194 197 199 191 182 185 184 188 191 196 193 191 189 186 182 192 201 203 207 207 208 212 213 211 213 215 214 210 210 213 213 217 226 219 211 178 174 183 202 207 217 221 209 191 198 219 217 201 192 199 204 192